NOAA 16 DEB, 41052

Orbit data source: Space-Track

NOAA 16 DEB, 41052 is space debris in SSO originally from a launch on Thu, 21 Sep 2000 UTC launched from the Air Force Western Test Range (AFWTR). Debris objects in space refer to the collection of defunct objects orbiting the Earth. Examples of debris include non-operational satellites, rocket bodies, and fragments generated from explosions, collisions, or faulty payload assembly.

Loading next visibility...
Identifier
41052, 2000-055K
Orbit
SSO
Country
Flag of USUS
Related business
Manufacturer
Unknown
Mission
Spacecraft
Bus & Motor
Unknown
Mass
Unknown
Launch date (UTC)
2000-09-21 (25 years ago)
Launch vehicle
Unknown
Launch site
Air Force Western Test Range (AFWTR)
Object type
Payload
Rocket body
Debris
Shape & HBR
Unknown shape, 0.1 m
Radar Cross Section
Small (<0.1 m²)

Expand to show TLE details & history
Last TLE update: 19 hours ago

TLE from 19 hours ago
0 NOAA 16 DEB
1 41052U 00055K   25352.32585953  .00000890  00000-0  48175-3 0  9994
2 41052  98.6094   6.7483 0162856 343.4775  16.1124 14.08397495516242
Epoch: 2025-12-18T07:49Z
TLE epoch observation values (Epoch: 2025-12-18T07:49:14.263Z)
Latitude
-0.00004°
Longitude
162.2559°
Altitude
754.57 km
Speed
7.535 km/s
True Right ascension
00h 26m 59s
True Declination
0° 00' 00"
Sunlit
Object was in daylight at epoch
Visualization orbit readout
Latitude
Unknown
Longitude
Unknown
Altitude
Unknown
Speed
Unknown
Apparent Right ascension
Unknown
Apparent Declination
Unknown
Sunlit
N/A
Visualization observer readout
Local Sidereal Time
01:45:02
Azimuth
Unknown
Elevation
Unknown
Doppler factor
Unknown
Orbital elements
Apogee altitude
979.939 km
Perigee altitude
744.118 km
Semi-major axis
7,240.166 km
Eccentricity
0.01629
Inclination
98.6094°
RAAN
6.7483°
Arg. of periapsis
343.4775°
True anomaly
16.64063°
Mean anomaly
16.1124°
Eccentric anomaly
16.37547°
Mean motion
3.52306 °/min
Orbital period
102.18 mins
BSTAR
0.00048175
Loading maneuver chart data...
Computing Atmospheric mass density...
Loading historical data...
Loading historical data...
Loading historical data...
Loading historical data...
Loading historical data...
Loading historical data...
Loading historical data...

Documentation

Showing up to 5 results
|